Location: ??
(34.7707°N, 135.6540°E)
Time: 07:59:25
(UTC+00:00)

BREEZE-M DEB (TANK) - Pass Details

Date: 09 April 2020
Orbit: 687 x 22242 km, 51.3° (Epoch: 23 May)

Event Time Altitude Azimuth Distance (km) Brightness Sun altitude
Rises 18:37:31 0° 311° (NW) 4,093 6.6 -23.0°
Reaches altitude 10° 18:40:38 10° 311° (NW) 2,533 5.5 -22.5°
Maximum altitude 18:45:12 90° 257° (WSW) 690 2.7 -21.6°
Drops below altitude 10° 18:49:38 10° 133° (SE) 2,447 5.8 -20.8°
Sets 18:52:34 0° 133° (SE) 3,929 6.9 -20.3°
